Location: Góry Miechowskie
(50.3599°N, 20.1803°E)
Time: 04:27:24
(UTC+00:00)

SR - Pass Details

Date: 18 September 2024
Orbit: 578 x 855 km, 66.7° (Epoch: 04 October)

Event Time Altitude Azimuth Distance (km) Brightness Sun altitude
Rises 17:38:53 0° 326° (NW) 2,879 ? -9.2°
Reaches altitude 10° 17:41:31 10° 342° (NNW) 2,008 ? -9.7°
Maximum altitude 17:45:05 22° 34° (NE) 1,410 ? -10.2°
Enters shadow 17:48:21 12° 82° (E) 1,978 ? -10.7°
